Location: Mexico
(19.4000°N, 99.1500°W)
Time: 18:07:20
(UTC-06:00)

ISS - Pass Details

Date: 20 February 2020
Orbit: 415 x 422 km, 51.6° (Epoch: 27 February)

Event Time Altitude Azimuth Distance (km) Brightness Sun altitude
Exits shadow 05:47:49 53° 233° (SW) 518 -3.6 -18.2°
Maximum altitude 05:48:30 79° 308° (NW) 427 -3.9 -18.1°
Drops below altitude 10° 05:51:51 10° 36° (NE) 1,492 -0.6 -17.3°
Sets 05:53:57 0° 37° (NE) 2,358 0.5 -16.8°
